Powrót do katalogu

STARLINK-34830

AktywnyŁącznośćVLEO
NORAD 65405·PAYLOAD·🇺🇸 United States

Wystrzelony Aug 31, 2025 z Cape Canaveral Space Force Station

Loading…

Następne Przeloty (najbliższe 24 godziny)

TLE

ŚwieżeSource: CelesTrak SupGP

Epoka: Sep 15, 2026, 03:19 UTC

1 65405C 25192B   26258.13868056 -.00030951  00000+0 -99537-3 0  2582
2 65405  53.1589  70.9517 0001107  86.3415 137.8625 15.31715686    14

Śledź STARLINK-34830 w czasie rzeczywistym z AllMySat

Download on the App Store